Airfield :
LOGIN :

Register | Disclaimer

   EN    FR    IT 

 










Legend :    VFR   Marginal VFR   IFR   Intensive IFR   Very Intensive IFR
Visi :
Ceiling :
>= 8 km
>= 3000ft
5 to 8 km
1000 to 3000 ft
1500m to 5 km
500 to 1000 ft
800 to 1500m
200 to 500 ft
< 800m
< 200 ft
Symbols :   Thunderstorms  Fog  Heavy snow  Heavy precipitations  Wind > 20 kt
SIGMETs :     Misc.  Thunderstorms  Icing  Turbulence  Mountain Waves  Volcanic Ashes






- Airport Elevation : 2936 ft


LECH - Calamocha

CURRENT METAR :
  • 060030Z AUTO 29004KT 250V320 CAVOK 09/M01 Q1003

EXPIRED METARs :
  • 060000Z AUTO 27007KT 240V300 CAVOK 09/M01 Q1003
  • 052330Z AUTO 29004KT 250V330 CAVOK 08/M01 Q1003
  • 052300Z AUTO 28008KT 250V320 9000 NSC 08/M01 Q1003
  • 052230Z AUTO 29008KT 250V320 9000 NSC 09/M01 Q1003
  • 052200Z AUTO 27007KT 230V320 9000 NSC 10/M01 Q1003

Expired Forecast.



MET'MAP, your aeronautical weather chart ! - Copyright ORBIFLY December 2007 - Disclaimer

ORBIFLY MET'MAP TEAM :

Programming & Development : Alexandra Zaïnal
Concept & original design : Baudouin d'Aumeries
Assistance for programming : Marc-Olivier Méhu
Technical & hardware support : Manuel Goepfert

Contact : metmap@orbifly.com




SOURCES & CREDITS :

   NOAA